SCP
0 0 0 0 0 0 0 0 0 0 0 0 0 0 0 0 0 0 0 0 0 0 0 0 0 0 0 0 0 0 0 0 0 0 0 0 0 0 0 0 0 0 0 0 0 0 0 0 -0 -0 0 0 0 0
0 0 0 0 0 0 0 0 0 0 0 0 0 0 0 0 0 0 0 0 0 0 0 0 0 0 0 0 0 0 0 0 0 0 0 0 0 0 0 0 0 0 0 0 0 0 0 0 0 0 0 0 0 0
0 0 0 0 0 0 0 0 0 0 0 0 0 0 0 0 0 0 0 0 0 0 0 0 0 0 0 0 0 0 0 0 0 0 0 0 0 0 0 0 0 0 0 0 0 0 0 0 0 0 0 0 0 0
0 0 0 0 0 0 0 0 0 0 0 0 0 0 0 0 0 0 0 0 0 0 0 0 0 0 0 0 0 0 0 0 -0 0 0 0 0 0 0 -0 -0 0 0 0 0 0 0 0 0 0 0 0 0 0
0 0 0 0 0 0 0 0 0 0 0 0 0 0 0 0 0 0 0 0 0 0 0 0 0 0 0 0 0 0 0 -0 -0 0 0 0 0 0 0 0 0 0 0 0 0 0 0 0 0 -0 0 0 0 0
0 0 0 0 0 0 0 0 0 0 0 0 0 0 0 0 0 0 0 0 0 0 0 0 0 0 0 0 0 0 0 0 0 0 0 0 0 0 -0 -0 0 0 0 0 0 0 0 0 0 0 0 0 0 0
0 0 0 0 0 0 0 0 0 0 0 0 0 0 0 0 0 0 0 0 0 0 0 0 0 0 0 0 0 0 0 0 0 0 0 0 -0 0 -0 0 0 0 0 0 0 0 0 0 0 0 0 0 0 0
0 0 0 0 0 0 0 0 0 0 0 0 0 0 0 0 0 0 0 0 0 0 0 0 0 0 0 0 -0 0 0 0 0 0 0 0 -0 0 0 0 -0 0 -0 0 0 0 0 0 0 0 0 0 0 0
0 0 0 0 0 0 0 0 0 0 0 0 0 0 0 0 0 0 0 0 0 0 0 0 0 0 0 0 0 0 0 0 0 -0 0 0 -0 0 0 0 0 -0 0 0 0 0 0 0 0 0 0 0 0 -0
0 0 0 0 0 0 0 0 0 0 0 0 0 0 0 0 0 0 0 0 0 0 0 0 0 -0 -0 0 0 0 0 -0 0 0 0 0 0 0 0 0 -0 -0 -0 0 -0 -0 -0 0 0 0 0 0 0 0
0 0 0 0 0 0 0 0 0 0 0 0 0 0 0 0 0 0 0 0 0 0 0 0 0 0 -0 0 0 -0 -0 0 -0 0 0 0 0 0 0 0 0 0 0 0 0 0 0 0 0 0 0 0 0 -0
0 0 0 0 0 0 0 0 0 0 0 0 0 0 0 0 0 0 0 0 0 0 0 0 0 0 0 -0 0 0 -0 0 -0 0 0 0 0 0 0 0 0 0 -0 -0 0 0 0 0 0 0 0 0 0 0
0 0 0 0 0 0 0 0 0 0 0 0 0 0 0 0 0 0 0 0 0 0 0 0 -0 0 -0 0 0 0 0 0 -0 0 -0 0 0 0 0 0 -0 0 -0 -0 -0 0 -0 0 0 0 0 0 0 0
0 0 0 0 0 0 0 0 0 0 0 0 0 0 0 0 0 0 0 0 0 0 -0 -0 -0 -0 -0 -0 -0 -0 0 0 0 -0 -0 0 0 0 0 0 -0 -0 -0 -0 -0 -0 0 -0 0 0 0 0 0 -0
0 0 0 0 0 -0 0 -0 0 0 0 0 0 0 0 0 0 0 0 -0 0 0 0 0 0 0 0 -0 -0 0 -0 -0 0 0 -0 0 0 0 0 0 -0 -0 -0 -0 -0 -0 -0 -0 -0 0 -0 0 0 -0
0 0 0 0 -0 0 -0 0 0 0 0 0 0 0 0 0 0 -0 0 -0 0 0 0 0 0 0 -0 -0 0 -0 0 0 -0 0 0 0 0 0 0 0 -0 -0 -0 -0 -0 -0 0 0 0 0 0 -0 0 -0
-0 0 -0 0 0 -0 -0 0 0 0 0 0 0 0 0 0 -0 -0 0 -0 0 0 0 0 0 -0 0 0 0 -0 -0 0 -0 0 0 0 -0 -0 -0 -0 -0 -0 -0 -0 -0 -0 0 -0 0 -0 0 -0 -0 -0
-0 0 0 -0 -0 0 0 0 0 0 0 0 0 0 0 0 -0 0 0 0 0 0 0 -0 -0 0 -0 -0 0 0 -0 -0 -0 0 -0 -0 -0 -0 -0 -0 0 0 0 0 0 -0 -0 -0 -0 0 0 0 -0 0
0 0 -0 -0 0 0 0 0 0 0 0 0 0 0 0 -0 -0 0 0 0 0 0 0 0 0 0 0 0 0 0 0 -0 -0 -0 0 0 0 0 0 0 0 -0 -0 -0 -0 -0 0 0 -0 -0 0 -0 -0 0
0 -0 -0 -0 0 0 0 0 0 0 0 0 0 -0 -0 0 0 0 0 0 0 0 0 0 0 0 0 0 0 0 0 0 0 0 0 0 0 0 0 0 0 -0 -0 -0 0 0 -0 0 0 -0 0 0 -0 0
0 0 0 0 0 0 0 0 0 0 0 0 0 0 0 0 0 0 0 0 0 0 0 0 0 0 0 0 0 0 0 0 0 0 0 0 -0 0 0 0 0 -0 -0 0 0 0 0 0 0 0 -0 -0 -0 -0
0 0 0 0 0 0 0 0 0 0 0 0 0 0 0 0 0 -0 -0 -0 0 0 0 0 0 0 0 0 0 0 0 0 0 0 0 0 0 0 0 0 -0 -0 -0 0 0 0 0 0 0 0 -0 -0 -0 -0
0 0 0 0 0 0 0 0 0 0 0 0 0 0 0 0 0 -0 0 -0 0 0 0 0 0 -0 -0 0 0 0 0 0 0 0 0 0 0 0 0 0 -0 -0 -0 0 0 0 0 0 0 -0 -0 -0 -0 -0
0 0 0 0 0 0 0 0 0 0 0 0 0 0 0 0 0 0 0 0 0 0 -0 -0 -0 -0 0 0 0 0 0 0 0 0 0 0 0 0 0 0 0 -0 -0 0 0 0 0 0 -0 0 0 0 -0 -0
0 0 0 0 0 0 0 0 0 0 0 0 0 0 0 0 0 0 0 0 0 -0 -0 -0 -0 -0 0 0 0 0 0 0 0 0 0 0 0 0 0 0 0 0 -0 0 0 0 0 0 -0 -0 0 0 0 0
0 0 0 0 0 0 0 0 0 0 0 0 0 0 0 0 0 0 0 0 0 0 0 -0 -0 0 0 0 0 0 0 0 0 0 0 0 0 0 0 0 0 0 0 0 -0 -0 0 0 -0 -0 0 0 0 -0
0 0 0 0 0 0 0 0 0 0 0 0 0 0 0 0 0 0 0 0 0 0 0 0 0 0 0 0 0 0 0 0 0 0 0 0 0 0 0 0 0 -0 0 0 -0 -0 -0 -0 -0 -0 -0 -0 0 -0
0 0 0 0 -0 0 0 0 0 0 0 0 0 0 0 0 0 0 0 0 0 0 0 0 0 0 0 0 0 0 0 0 0 0 0 0 0 0 0 0 0 0 0 0 0 0 0 -0 -0 -0 -0 0 0 -0
0 0 -0 -0 0 0 0 0 0 0 0 0 0 0 0 0 0 0 0 0 0 0 0 0 0 0 0 0 0 0 0 0 0 0 0 0 0 0 0 0 0 0 0 0 0 0 0 0 0 -0 -0 0 0 0
0 0 0 0 0 0 0 0 0 0 0 0 0 0 0 0 0 0 0 0 0 0 0 0 0 0 0 0 0 0 0 0 0 0 0 0 0 0 0 0 0 0 0 0 0 0 0 0 0 0 0 0 0 0
0 0 0 0 0 0 0 0 0 0 0 0 0 0 0 0 0 0 0 0 0 0 0 0 0 0 0 0 0 0 0 0 0 0 0 0 0 0 0 0 0 0 0 0 0 0 0 0 0 0 0 0 0 0
0 0 0 0 0 0 0 0 0 0 0 0 0 0 0 0 0 0 0 0 0 0 0 0 0 0 0 0 0 0 0 0 0 0 0 0 0 0 0 0 0 0 0 0 0 0 0 0 0 0 0 0 0 0
0 0 0 0 0 0 0 0 0 0 0 0 0 0 0 0 0 0 0 0 0 0 0 0 0 0 0 0 0 0 0 0 0 0 0 0 0 0 0 0 0 0 0 0 0 0 0 0 0 0 0 0 0 0
Wind_Speed_500mb
37 37 33 30 29 29 26 27 30 28 30 28 23 20 24 24 23 21 15 13 20 15 40 30 6 20 23 13 5 15 21 8 8 7 5 6 4 6 6 8 1 6 3 3 2 6 9 7 13 1 6 40 40 43
35 33 35 34 33 32 30 29 27 27 29 25 24 23 25 24 25 25 24 18 21 36 40 63 72 52 65 49 17 5 12 15 8 4 5 5 5 6 3 5 8 5 7 6 10 8 5 11 11 3 19 35 39 51
40 40 39 38 36 35 30 26 26 25 25 27 24 26 28 27 26 26 26 25 25 27 49 29 36 18 20 22 31 18 12 8 3 7 5 5 7 2 3 6 6 10 9 3 9 2 13 33 7 33 36 44 59 60
42 43 47 44 40 35 32 27 27 26 26 27 26 26 26 24 23 24 31 25 22 17 10 18 16 18 16 10 30 39 41 16 18 13 9 5 4 4 5 8 4 6 7 6 9 9 37 9 40 56 60 64 60 63
46 46 43 43 43 38 33 30 30 31 27 27 27 28 31 22 21 26 29 31 26 20 9 29 73 11 7 28 39 38 34 36 27 5 3 5 8 5 6 4 2 3 5 4 7 18 19 42 59 64 62 62 72 78
44 43 41 41 41 37 30 30 30 25 20 24 29 24 22 21 19 18 10 17 21 37 10 8 18 25 14 11 37 33 36 39 25 6 5 10 16 7 4 5 9 4 6 6 11 32 39 57 54 47 55 73 75 76
43 43 42 42 40 37 35 32 29 25 24 27 23 21 22 21 21 17 9 6 8 10 6 11 12 12 15 23 29 47 29 18 15 4 5 8 11 6 3 6 2 5 14 24 18 41 30 30 51 66 70 67 77 77
42 41 40 40 38 37 33 28 29 24 24 22 17 21 22 19 21 27 33 28 23 7 8 6 9 12 8 8 7 22 16 11 10 9 8 9 7 6 7 15 11 14 30 26 37 39 43 57 57 60 63 72 68 82
42 39 36 33 33 34 30 28 26 27 26 21 26 32 29 16 15 18 14 10 31 14 6 7 4 6 16 5 8 0 11 6 12 6 6 3 4 7 5 9 13 18 20 32 43 47 41 54 54 63 68 61 72 80
33 31 31 31 30 32 32 29 25 25 27 25 34 13 9 8 10 14 10 11 14 10 11 8 10 6 9 9 11 12 12 6 5 8 6 5 6 8 11 8 9 19 29 28 37 45 57 57 60 68 67 65 60 84
29 30 29 28 25 24 25 24 21 26 28 40 19 13 13 20 19 7 7 10 10 7 13 15 25 12 12 8 6 7 5 6 4 4 4 3 3 2 9 14 14 20 25 34 39 47 50 43 55 63 63 65 64 94
32 32 30 29 28 28 26 27 32 33 27 23 19 23 24 11 9 7 6 7 9 8 11 10 17 27 12 14 5 4 2 4 6 16 3 4 1 9 11 17 23 25 32 36 43 49 48 43 48 59 68 73 63 87
37 36 39 34 29 32 32 29 29 40 36 27 9 12 11 11 9 11 11 8 7 10 14 13 7 14 13 14 3 1 3 7 20 5 5 2 3 8 13 21 28 26 31 41 46 45 42 41 47 55 66 58 67 87
37 35 36 34 33 38 35 29 58 56 27 11 14 10 9 10 10 10 7 5 11 14 21 18 6 11 7 4 4 5 5 4 4 3 1 4 1 7 11 20 24 28 31 43 49 46 43 43 50 54 58 66 68 88
36 38 33 33 33 37 34 38 66 59 13 11 11 10 14 20 15 11 22 23 23 38 22 8 9 5 1 3 3 3 8 5 4 3 4 12 6 5 13 19 19 25 30 43 50 46 46 44 50 51 60 66 68 82
34 29 42 37 35 37 34 68 67 39 15 11 12 8 21 8 12 23 19 22 30 32 28 15 5 3 7 6 3 7 4 6 5 5 21 9 2 7 14 14 19 25 34 36 43 49 44 46 52 52 53 64 77 87
22 36 32 30 38 38 52 72 31 14 12 10 11 26 28 12 12 23 21 28 25 25 5 4 6 6 2 2 3 7 8 6 25 26 11 8 10 9 9 15 21 25 32 44 39 42 43 45 48 52 58 66 85 90
29 26 24 28 44 81 60 22 14 16 12 17 9 16 25 21 18 9 18 31 34 12 10 9 14 5 8 6 5 6 10 10 20 19 13 16 16 17 12 18 18 24 36 38 31 36 41 49 57 56 53 64 89 93
30 28 31 41 57 44 13 14 12 11 19 9 21 24 20 19 26 30 25 22 19 22 8 9 4 6 5 4 9 17 11 23 37 22 11 10 9 14 14 7 24 34 43 31 32 39 44 48 55 52 50 62 85 91
18 23 51 67 59 11 9 7 15 6 7 13 17 19 27 20 21 26 24 21 14 7 4 4 3 5 16 23 30 29 18 17 29 20 6 4 5 5 7 16 28 34 43 31 29 38 45 44 48 53 47 50 75 86
48 70 67 56 19 9 8 12 12 10 8 11 13 16 9 14 20 25 20 22 22 6 5 9 33 36 33 30 24 20 23 26 28 22 17 18 16 22 11 17 26 31 40 44 42 39 47 53 51 44 46 48 60 75
59 72 53 31 5 5 5 12 6 6 8 8 6 16 6 10 12 20 25 16 10 22 7 36 43 39 31 26 23 24 24 22 27 15 6 11 19 13 10 18 28 33 37 39 48 43 48 51 51 41 37 40 47 68
72 53 16 7 4 6 4 12 8 6 3 4 9 9 5 7 17 19 10 14 14 15 24 40 34 25 20 26 29 29 13 23 22 16 19 18 14 13 11 18 26 29 32 30 35 41 41 42 48 37 39 38 47 66
47 14 8 13 9 7 8 11 8 5 6 4 7 4 5 8 17 10 6 9 22 43 47 44 39 34 22 26 31 22 20 24 15 19 17 16 17 17 13 18 22 26 29 24 30 33 32 41 49 35 34 37 42 61
12 10 10 8 11 9 7 6 6 5 5 7 4 4 2 3 3 4 4 7 55 54 45 40 34 25 30 36 28 18 9 22 25 24 16 11 18 18 10 14 20 17 24 26 34 36 31 37 46 37 33 37 38 44
5 10 13 14 9 7 7 8 10 10 6 8 6 8 2 2 5 4 1 12 52 55 48 41 33 28 36 32 41 31 23 25 22 15 15 9 10 8 1 10 13 14 26 26 30 36 27 31 35 38 31 30 32 33
7 6 11 11 9 6 6 7 7 4 6 7 6 7 5 4 3 3 17 11 40 43 32 31 33 33 37 45 37 31 27 22 20 15 16 3 0 2 6 14 17 16 16 20 24 30 27 25 27 30 30 21 24 25
5 8 8 16 8 7 2 5 5 8 3 4 11 5 6 2 2 6 15 14 34 38 31 26 21 31 49 53 44 36 28 24 23 21 16 12 11 6 7 7 3 4 4 14 15 22 22 22 25 27 25 22 23 18
6 7 11 6 4 5 6 2 3 4 2 6 2 4 4 8 19 15 17 24 23 23 30 39 49 50 47 38 30 25 24 31 31 28 24 21 15 6 2 3 5 3 7 6 9 17 20 17 17 20 17 17 18 15
8 19 6 8 6 4 2 6 5 1 3 18 18 30 35 34 28 21 21 18 24 30 36 38 38 31 32 34 30 25 24 25 26 23 31 23 11 8 6 5 4 1 6 10 12 14 14 12 13 14 15 13 17 17
17 12 5 5 2 13 13 21 22 27 27 35 43 46 39 25 29 30 31 32 35 32 29 29 24 19 18 21 20 21 18 13 13 18 18 17 14 13 9 5 5 7 11 14 16 16 17 18 17 17 16 15 10 11
8 6 7 3 5 17 23 11 11 15 24 32 27 28 21 12 11 10 21 12 18 20 18 20 25 33 33 29 23 15 10 14 14 11 8 6 7 9 10 10 11 12 13 15 16 17 19 19 18 16 13 12 11 8
11 11 9 4 6 5 9 11 6 8 10 7 8 10 13 9 8 14 14 16 12 13 8 10 21 27 26 30 32 31 27 21 17 11 9 10 10 9 9 9 11 12 15 17 17 18 20 21 20 20 20 17 13 11
Wind_Direction_500mb
279 283 285 288 290 299 303 291 293 299 298 297 287 289 293 282 278 278 269 257 254 249 278 268 280 283 257 214 226 323 333 8 327 7 331 328 313 310 10 304 129 142 190 230 273 245 258 4 316 108 278 302 302 303
273 278 284 282 285 290 296 302 295 293 296 297 292 285 286 282 265 263 259 266 269 248 260 282 290 279 250 243 256 224 277 318 296 356 358 326 320 316 12 285 352 75 165 214 192 228 135 323 234 328 312 301 307 306
272 278 278 278 282 286 286 296 292 293 295 297 288 287 281 277 265 257 258 268 280 277 294 281 296 323 277 237 235 225 260 227 25 348 287 270 276 74 306 273 2 332 24 74 2 134 325 331 263 329 323 313 311 306
266 268 273 277 277 280 276 281 284 287 294 297 288 288 280 270 258 238 249 266 275 273 281 282 268 275 175 233 224 228 245 218 310 281 239 243 239 233 259 249 248 232 6 353 270 308 332 324 312 319 315 317 313 315
274 274 272 270 270 271 271 268 272 281 286 283 284 285 272 252 249 232 241 255 261 253 285 292 299 314 254 254 215 242 243 247 264 288 281 252 259 312 296 308 235 294 185 139 250 309 291 291 307 317 317 314 315 311
272 272 272 269 266 263 257 261 276 284 296 297 271 282 255 232 237 227 269 260 244 257 287 293 302 302 306 212 210 229 237 244 240 208 261 275 273 269 285 268 204 211 133 311 272 299 297 301 310 314 309 314 311 310
270 270 271 268 263 255 248 257 269 274 283 293 276 258 224 224 228 205 224 202 172 173 246 288 286 296 321 214 232 228 238 207 215 216 237 263 282 270 250 249 85 98 349 337 330 328 322 319 312 326 319 315 319 319
271 271 272 268 258 251 244 248 257 270 289 283 258 216 208 218 224 240 248 263 271 223 214 268 274 295 352 191 166 196 180 208 228 218 212 223 264 219 248 247 285 335 337 337 334 330 308 311 312 318 328 326 328 328
268 269 268 263 256 243 235 242 255 272 269 254 210 198 194 216 221 244 259 228 229 222 242 236 258 284 327 280 152 111 211 196 195 213 235 186 257 225 228 287 290 319 319 323 329 328 317 325 327 336 328 335 331 334
265 264 264 262 254 242 229 238 253 262 229 218 191 179 206 199 179 165 155 174 210 230 234 245 227 262 1 315 216 194 184 204 206 221 195 215 255 280 216 230 317 359 344 344 326 331 334 334 335 329 328 324 339 344
271 270 269 261 243 237 235 230 242 221 199 188 188 181 165 139 158 198 208 201 193 240 226 235 216 221 234 224 267 218 171 172 251 177 226 234 247 304 84 72 29 359 348 342 335 325 331 330 330 327 337 337 336 348
274 275 274 267 231 226 226 231 232 222 201 200 170 144 138 179 199 225 205 196 211 238 209 206 216 201 241 219 205 294 225 102 255 145 195 241 185 61 39 14 1 349 344 335 330 328 331 342 345 344 341 339 337 346
267 262 267 264 232 221 222 235 234 225 203 152 147 148 162 175 211 215 205 195 208 209 217 212 198 185 218 227 196 56 307 232 122 183 204 66 345 68 27 347 337 350 344 334 338 339 340 348 357 2 356 348 344 349
263 260 259 262 229 214 230 219 212 206 179 153 161 172 207 192 225 204 221 181 217 237 271 305 231 201 191 115 194 192 251 143 257 333 95 223 255 69 11 350 352 350 348 347 349 350 349 353 357 3 358 352 345 352
259 260 247 238 222 227 212 213 208 190 155 163 186 217 219 232 237 225 236 274 264 257 256 258 215 207 360 101 13 46 341 280 183 257 213 148 122 344 351 352 349 345 342 345 354 356 349 358 2 3 5 354 350 357
252 242 236 231 229 216 200 192 176 177 160 189 219 244 253 279 254 249 224 252 216 249 279 204 134 108 246 155 120 227 112 245 234 193 145 158 179 349 352 0 353 342 343 350 351 1 5 6 8 7 6 2 357 6
227 237 243 221 207 197 195 172 165 165 202 211 231 234 247 292 268 251 231 227 221 291 223 142 135 214 122 130 237 177 196 213 146 148 144 34 12 348 24 29 1 347 343 338 348 357 8 13 14 16 9 4 8 9
227 238 214 193 182 173 163 166 160 184 215 221 234 241 229 232 244 288 232 264 290 244 181 189 112 227 205 203 245 224 206 148 164 153 92 61 62 66 55 15 7 353 344 340 349 5 18 18 20 18 12 6 10 10
230 234 221 206 194 157 137 160 169 201 222 229 245 241 234 258 247 253 269 272 269 241 161 161 210 208 228 204 158 162 172 174 164 155 99 57 48 59 42 45 5 8 3 19 21 21 22 26 24 19 14 4 8 11
208 196 184 181 172 115 121 148 163 202 231 222 233 239 229 235 275 231 269 263 225 186 211 209 200 198 144 130 145 128 117 148 152 150 147 345 327 92 81 26 19 13 8 27 27 23 23 23 24 23 20 1 8 11
173 173 173 166 137 113 144 161 179 212 236 231 212 210 237 218 236 243 247 234 217 216 228 183 139 133 136 137 142 139 116 126 137 123 112 82 102 151 97 42 14 16 21 29 27 26 29 26 19 22 23 8 10 8
161 165 158 156 100 119 138 182 187 211 227 272 202 182 207 212 199 223 233 215 209 220 192 158 152 152 149 140 133 138 113 106 118 98 125 125 125 139 71 40 16 21 25 29 31 28 24 23 20 18 23 22 12 11
159 160 119 106 132 172 193 183 204 217 237 232 182 174 219 217 199 201 177 227 220 227 195 169 164 166 156 155 149 146 113 155 132 104 102 111 109 117 80 45 26 23 25 31 28 21 19 18 14 13 18 29 17 18
150 129 143 169 173 191 185 199 210 220 222 254 167 212 224 221 171 129 216 209 172 161 159 162 161 152 138 148 157 132 102 157 143 142 107 109 115 114 72 55 29 20 29 32 29 24 26 20 13 19 24 27 25 19
128 184 174 182 194 201 193 173 183 227 230 201 233 119 287 294 130 208 218 156 160 163 165 167 171 177 163 146 148 142 91 156 157 137 128 131 120 127 86 36 10 18 23 27 24 22 30 24 20 28 31 28 30 20
140 181 186 189 169 202 184 180 194 199 200 190 195 133 180 226 165 230 24 174 170 167 171 178 169 166 170 175 169 174 146 153 168 156 145 186 198 201 110 356 44 44 35 30 18 19 29 31 22 20 30 36 34 27
169 180 196 205 196 205 212 182 168 164 205 204 146 144 198 209 125 347 33 121 181 186 182 186 186 190 184 179 177 177 183 188 193 183 159 156 185 160 70 73 62 55 36 22 15 17 20 22 17 15 24 38 40 35
240 194 188 179 194 214 248 166 163 186 174 245 152 172 160 38 135 100 88 104 153 165 174 183 193 189 179 171 169 167 159 168 171 172 169 148 133 112 111 113 87 34 39 30 8 3 1 5 9 9 28 62 45 42
228 200 167 163 201 205 194 187 157 186 261 109 125 83 104 74 76 113 112 150 169 177 153 145 142 153 151 155 161 162 161 167 186 186 189 175 164 136 165 251 297 26 165 37 338 353 354 349 4 20 46 82 68 79
215 179 168 151 168 175 16 171 115 150 181 149 115 103 98 91 86 128 148 140 165 157 153 154 154 165 165 167 168 174 180 191 200 214 199 187 188 188 226 283 332 260 229 265 309 349 4 16 27 39 54 109 117 107
161 137 128 153 165 120 106 129 107 99 102 118 134 126 118 105 82 77 96 126 135 140 144 151 168 195 201 196 185 168 156 172 192 191 175 165 174 194 225 271 316 263 278 309 333 347 359 6 16 26 32 42 77 145
119 131 110 101 85 113 122 108 81 94 92 115 112 118 108 77 60 52 37 93 141 145 156 183 191 192 203 196 184 174 154 142 164 183 177 204 270 276 281 297 293 282 295 312 326 334 341 349 355 2 16 21 17 21
122 137 165 109 105 117 103 100 80 88 95 81 60 69 71 76 75 21 39 44 104 106 116 205 215 192 186 189 188 176 166 160 159 173 211 232 238 248 266 287 299 305 305 311 319 326 330 336 343 348 351 354 358 347
Wind_Speed_850mb
37 37 33 30 29 29 26 27 30 28 30 28 23 20 24 24 23 21 15 13 20 15 40 30 6 20 23 13 5 15 21 8 8 7 5 6 4 6 6 8 1 6 3 3 2 6 9 7 13 1 6 40 40 43
35 33 35 34 33 32 30 29 27 27 29 25 24 23 25 24 25 25 24 18 21 36 40 63 72 52 65 49 17 5 12 15 8 4 5 5 5 6 3 5 8 5 7 6 10 8 5 11 11 3 19 35 39 51
40 40 39 38 36 35 30 26 26 25 25 27 24 26 28 27 26 26 26 25 25 27 49 29 36 18 20 22 31 18 12 8 3 7 5 5 7 2 3 6 6 10 9 3 9 2 13 33 7 33 36 44 59 60
42 43 47 44 40 35 32 27 27 26 26 27 26 26 26 24 23 24 31 25 22 17 10 18 16 18 16 10 30 39 41 16 18 13 9 5 4 4 5 8 4 6 7 6 9 9 37 9 40 56 60 64 60 63
46 46 43 43 43 38 33 30 30 31 27 27 27 28 31 22 21 26 29 31 26 20 9 29 73 11 7 28 39 38 34 36 27 5 3 5 8 5 6 4 2 3 5 4 7 18 19 42 59 64 62 62 72 78
44 43 41 41 41 37 30 30 30 25 20 24 29 24 22 21 19 18 10 17 21 37 10 8 18 25 14 11 37 33 36 39 25 6 5 10 16 7 4 5 9 4 6 6 11 32 39 57 54 47 55 73 75 76
43 43 42 42 40 37 35 32 29 25 24 27 23 21 22 21 21 17 9 6 8 10 6 11 12 12 15 23 29 47 29 18 15 4 5 8 11 6 3 6 2 5 14 24 18 41 30 30 51 66 70 67 77 77
42 41 40 40 38 37 33 28 29 24 24 22 17 21 22 19 21 27 33 28 23 7 8 6 9 12 8 8 7 22 16 11 10 9 8 9 7 6 7 15 11 14 30 26 37 39 43 57 57 60 63 72 68 82
42 39 36 33 33 34 30 28 26 27 26 21 26 32 29 16 15 18 14 10 31 14 6 7 4 6 16 5 8 0 11 6 12 6 6 3 4 7 5 9 13 18 20 32 43 47 41 54 54 63 68 61 72 80
33 31 31 31 30 32 32 29 25 25 27 25 34 13 9 8 10 14 10 11 14 10 11 8 10 6 9 9 11 12 12 6 5 8 6 5 6 8 11 8 9 19 29 28 37 45 57 57 60 68 67 65 60 84
29 30 29 28 25 24 25 24 21 26 28 40 19 13 13 20 19 7 7 10 10 7 13 15 25 12 12 8 6 7 5 6 4 4 4 3 3 2 9 14 14 20 25 34 39 47 50 43 55 63 63 65 64 94
32 32 30 29 28 28 26 27 32 33 27 23 19 23 24 11 9 7 6 7 9 8 11 10 17 27 12 14 5 4 2 4 6 16 3 4 1 9 11 17 23 25 32 36 43 49 48 43 48 59 68 73 63 87
37 36 39 34 29 32 32 29 29 40 36 27 9 12 11 11 9 11 11 8 7 10 14 13 7 14 13 14 3 1 3 7 20 5 5 2 3 8 13 21 28 26 31 41 46 45 42 41 47 55 66 58 67 87
37 35 36 34 33 38 35 29 58 56 27 11 14 10 9 10 10 10 7 5 11 14 21 18 6 11 7 4 4 5 5 4 4 3 1 4 1 7 11 20 24 28 31 43 49 46 43 43 50 54 58 66 68 88
36 38 33 33 33 37 34 38 66 59 13 11 11 10 14 20 15 11 22 23 23 38 22 8 9 5 1 3 3 3 8 5 4 3 4 12 6 5 13 19 19 25 30 43 50 46 46 44 50 51 60 66 68 82
34 29 42 37 35 37 34 68 67 39 15 11 12 8 21 8 12 23 19 22 30 32 28 15 5 3 7 6 3 7 4 6 5 5 21 9 2 7 14 14 19 25 34 36 43 49 44 46 52 52 53 64 77 87
22 36 32 30 38 38 52 72 31 14 12 10 11 26 28 12 12 23 21 28 25 25 5 4 6 6 2 2 3 7 8 6 25 26 11 8 10 9 9 15 21 25 32 44 39 42 43 45 48 52 58 66 85 90
29 26 24 28 44 81 60 22 14 16 12 17 9 16 25 21 18 9 18 31 34 12 10 9 14 5 8 6 5 6 10 10 20 19 13 16 16 17 12 18 18 24 36 38 31 36 41 49 57 56 53 64 89 93
30 28 31 41 57 44 13 14 12 11 19 9 21 24 20 19 26 30 25 22 19 22 8 9 4 6 5 4 9 17 11 23 37 22 11 10 9 14 14 7 24 34 43 31 32 39 44 48 55 52 50 62 85 91
18 23 51 67 59 11 9 7 15 6 7 13 17 19 27 20 21 26 24 21 14 7 4 4 3 5 16 23 30 29 18 17 29 20 6 4 5 5 7 16 28 34 43 31 29 38 45 44 48 53 47 50 75 86
48 70 67 56 19 9 8 12 12 10 8 11 13 16 9 14 20 25 20 22 22 6 5 9 33 36 33 30 24 20 23 26 28 22 17 18 16 22 11 17 26 31 40 44 42 39 47 53 51 44 46 48 60 75
59 72 53 31 5 5 5 12 6 6 8 8 6 16 6 10 12 20 25 16 10 22 7 36 43 39 31 26 23 24 24 22 27 15 6 11 19 13 10 18 28 33 37 39 48 43 48 51 51 41 37 40 47 68
72 53 16 7 4 6 4 12 8 6 3 4 9 9 5 7 17 19 10 14 14 15 24 40 34 25 20 26 29 29 13 23 22 16 19 18 14 13 11 18 26 29 32 30 35 41 41 42 48 37 39 38 47 66
47 14 8 13 9 7 8 11 8 5 6 4 7 4 5 8 17 10 6 9 22 43 47 44 39 34 22 26 31 22 20 24 15 19 17 16 17 17 13 18 22 26 29 24 30 33 32 41 49 35 34 37 42 61
12 10 10 8 11 9 7 6 6 5 5 7 4 4 2 3 3 4 4 7 55 54 45 40 34 25 30 36 28 18 9 22 25 24 16 11 18 18 10 14 20 17 24 26 34 36 31 37 46 37 33 37 38 44
5 10 13 14 9 7 7 8 10 10 6 8 6 8 2 2 5 4 1 12 52 55 48 41 33 28 36 32 41 31 23 25 22 15 15 9 10 8 1 10 13 14 26 26 30 36 27 31 35 38 31 30 32 33
7 6 11 11 9 6 6 7 7 4 6 7 6 7 5 4 3 3 17 11 40 43 32 31 33 33 37 45 37 31 27 22 20 15 16 3 0 2 6 14 17 16 16 20 24 30 27 25 27 30 30 21 24 25
5 8 8 16 8 7 2 5 5 8 3 4 11 5 6 2 2 6 15 14 34 38 31 26 21 31 49 53 44 36 28 24 23 21 16 12 11 6 7 7 3 4 4 14 15 22 22 22 25 27 25 22 23 18
6 7 11 6 4 5 6 2 3 4 2 6 2 4 4 8 19 15 17 24 23 23 30 39 49 50 47 38 30 25 24 31 31 28 24 21 15 6 2 3 5 3 7 6 9 17 20 17 17 20 17 17 18 15
8 19 6 8 6 4 2 6 5 1 3 18 18 30 35 34 28 21 21 18 24 30 36 38 38 31 32 34 30 25 24 25 26 23 31 23 11 8 6 5 4 1 6 10 12 14 14 12 13 14 15 13 17 17
17 12 5 5 2 13 13 21 22 27 27 35 43 46 39 25 29 30 31 32 35 32 29 29 24 19 18 21 20 21 18 13 13 18 18 17 14 13 9 5 5 7 11 14 16 16 17 18 17 17 16 15 10 11
8 6 7 3 5 17 23 11 11 15 24 32 27 28 21 12 11 10 21 12 18 20 18 20 25 33 33 29 23 15 10 14 14 11 8 6 7 9 10 10 11 12 13 15 16 17 19 19 18 16 13 12 11 8
11 11 9 4 6 5 9 11 6 8 10 7 8 10 13 9 8 14 14 16 12 13 8 10 21 27 26 30 32 31 27 21 17 11 9 10 10 9 9 9 11 12 15 17 17 18 20 21 20 20 20 17 13 11
Wind_Direction_850mb
279 283 285 288 290 299 303 291 293 299 298 297 287 289 293 282 278 278 269 257 254 249 278 268 280 283 257 214 226 323 333 8 327 7 331 328 313 310 10 304 129 142 190 230 273 245 258 4 316 108 278 302 302 303
273 278 284 282 285 290 296 302 295 293 296 297 292 285 286 282 265 263 259 266 269 248 260 282 290 279 250 243 256 224 277 318 296 356 358 326 320 316 12 285 352 75 165 214 192 228 135 323 234 328 312 301 307 306
272 278 278 278 282 286 286 296 292 293 295 297 288 287 281 277 265 257 258 268 280 277 294 281 296 323 277 237 235 225 260 227 25 348 287 270 276 74 306 273 2 332 24 74 2 134 325 331 263 329 323 313 311 306
266 268 273 277 277 280 276 281 284 287 294 297 288 288 280 270 258 238 249 266 275 273 281 282 268 275 175 233 224 228 245 218 310 281 239 243 239 233 259 249 248 232 6 353 270 308 332 324 312 319 315 317 313 315
274 274 272 270 270 271 271 268 272 281 286 283 284 285 272 252 249 232 241 255 261 253 285 292 299 314 254 254 215 242 243 247 264 288 281 252 259 312 296 308 235 294 185 139 250 309 291 291 307 317 317 314 315 311
272 272 272 269 266 263 257 261 276 284 296 297 271 282 255 232 237 227 269 260 244 257 287 293 302 302 306 212 210 229 237 244 240 208 261 275 273 269 285 268 204 211 133 311 272 299 297 301 310 314 309 314 311 310
270 270 271 268 263 255 248 257 269 274 283 293 276 258 224 224 228 205 224 202 172 173 246 288 286 296 321 214 232 228 238 207 215 216 237 263 282 270 250 249 85 98 349 337 330 328 322 319 312 326 319 315 319 319
271 271 272 268 258 251 244 248 257 270 289 283 258 216 208 218 224 240 248 263 271 223 214 268 274 295 352 191 166 196 180 208 228 218 212 223 264 219 248 247 285 335 337 337 334 330 308 311 312 318 328 326 328 328
268 269 268 263 256 243 235 242 255 272 269 254 210 198 194 216 221 244 259 228 229 222 242 236 258 284 327 280 152 111 211 196 195 213 235 186 257 225 228 287 290 319 319 323 329 328 317 325 327 336 328 335 331 334
265 264 264 262 254 242 229 238 253 262 229 218 191 179 206 199 179 165 155 174 210 230 234 245 227 262 1 315 216 194 184 204 206 221 195 215 255 280 216 230 317 359 344 344 326 331 334 334 335 329 328 324 339 344
271 270 269 261 243 237 235 230 242 221 199 188 188 181 165 139 158 198 208 201 193 240 226 235 216 221 234 224 267 218 171 172 251 177 226 234 247 304 84 72 29 359 348 342 335 325 331 330 330 327 337 337 336 348
274 275 274 267 231 226 226 231 232 222 201 200 170 144 138 179 199 225 205 196 211 238 209 206 216 201 241 219 205 294 225 102 255 145 195 241 185 61 39 14 1 349 344 335 330 328 331 342 345 344 341 339 337 346
267 262 267 264 232 221 222 235 234 225 203 152 147 148 162 175 211 215 205 195 208 209 217 212 198 185 218 227 196 56 307 232 122 183 204 66 345 68 27 347 337 350 344 334 338 339 340 348 357 2 356 348 344 349
263 260 259 262 229 214 230 219 212 206 179 153 161 172 207 192 225 204 221 181 217 237 271 305 231 201 191 115 194 192 251 143 257 333 95 223 255 69 11 350 352 350 348 347 349 350 349 353 357 3 358 352 345 352
259 260 247 238 222 227 212 213 208 190 155 163 186 217 219 232 237 225 236 274 264 257 256 258 215 207 360 101 13 46 341 280 183 257 213 148 122 344 351 352 349 345 342 345 354 356 349 358 2 3 5 354 350 357
252 242 236 231 229 216 200 192 176 177 160 189 219 244 253 279 254 249 224 252 216 249 279 204 134 108 246 155 120 227 112 245 234 193 145 158 179 349 352 0 353 342 343 350 351 1 5 6 8 7 6 2 357 6
227 237 243 221 207 197 195 172 165 165 202 211 231 234 247 292 268 251 231 227 221 291 223 142 135 214 122 130 237 177 196 213 146 148 144 34 12 348 24 29 1 347 343 338 348 357 8 13 14 16 9 4 8 9
227 238 214 193 182 173 163 166 160 184 215 221 234 241 229 232 244 288 232 264 290 244 181 189 112 227 205 203 245 224 206 148 164 153 92 61 62 66 55 15 7 353 344 340 349 5 18 18 20 18 12 6 10 10
230 234 221 206 194 157 137 160 169 201 222 229 245 241 234 258 247 253 269 272 269 241 161 161 210 208 228 204 158 162 172 174 164 155 99 57 48 59 42 45 5 8 3 19 21 21 22 26 24 19 14 4 8 11
208 196 184 181 172 115 121 148 163 202 231 222 233 239 229 235 275 231 269 263 225 186 211 209 200 198 144 130 145 128 117 148 152 150 147 345 327 92 81 26 19 13 8 27 27 23 23 23 24 23 20 1 8 11
173 173 173 166 137 113 144 161 179 212 236 231 212 210 237 218 236 243 247 234 217 216 228 183 139 133 136 137 142 139 116 126 137 123 112 82 102 151 97 42 14 16 21 29 27 26 29 26 19 22 23 8 10 8
161 165 158 156 100 119 138 182 187 211 227 272 202 182 207 212 199 223 233 215 209 220 192 158 152 152 149 140 133 138 113 106 118 98 125 125 125 139 71 40 16 21 25 29 31 28 24 23 20 18 23 22 12 11
159 160 119 106 132 172 193 183 204 217 237 232 182 174 219 217 199 201 177 227 220 227 195 169 164 166 156 155 149 146 113 155 132 104 102 111 109 117 80 45 26 23 25 31 28 21 19 18 14 13 18 29 17 18
150 129 143 169 173 191 185 199 210 220 222 254 167 212 224 221 171 129 216 209 172 161 159 162 161 152 138 148 157 132 102 157 143 142 107 109 115 114 72 55 29 20 29 32 29 24 26 20 13 19 24 27 25 19
128 184 174 182 194 201 193 173 183 227 230 201 233 119 287 294 130 208 218 156 160 163 165 167 171 177 163 146 148 142 91 156 157 137 128 131 120 127 86 36 10 18 23 27 24 22 30 24 20 28 31 28 30 20
140 181 186 189 169 202 184 180 194 199 200 190 195 133 180 226 165 230 24 174 170 167 171 178 169 166 170 175 169 174 146 153 168 156 145 186 198 201 110 356 44 44 35 30 18 19 29 31 22 20 30 36 34 27
169 180 196 205 196 205 212 182 168 164 205 204 146 144 198 209 125 347 33 121 181 186 182 186 186 190 184 179 177 177 183 188 193 183 159 156 185 160 70 73 62 55 36 22 15 17 20 22 17 15 24 38 40 35
240 194 188 179 194 214 248 166 163 186 174 245 152 172 160 38 135 100 88 104 153 165 174 183 193 189 179 171 169 167 159 168 171 172 169 148 133 112 111 113 87 34 39 30 8 3 1 5 9 9 28 62 45 42
228 200 167 163 201 205 194 187 157 186 261 109 125 83 104 74 76 113 112 150 169 177 153 145 142 153 151 155 161 162 161 167 186 186 189 175 164 136 165 251 297 26 165 37 338 353 354 349 4 20 46 82 68 79
215 179 168 151 168 175 16 171 115 150 181 149 115 103 98 91 86 128 148 140 165 157 153 154 154 165 165 167 168 174 180 191 200 214 199 187 188 188 226 283 332 260 229 265 309 349 4 16 27 39 54 109 117 107
161 137 128 153 165 120 106 129 107 99 102 118 134 126 118 105 82 77 96 126 135 140 144 151 168 195 201 196 185 168 156 172 192 191 175 165 174 194 225 271 316 263 278 309 333 347 359 6 16 26 32 42 77 145
119 131 110 101 85 113 122 108 81 94 92 115 112 118 108 77 60 52 37 93 141 145 156 183 191 192 203 196 184 174 154 142 164 183 177 204 270 276 281 297 293 282 295 312 326 334 341 349 355 2 16 21 17 21
122 137 165 109 105 117 103 100 80 88 95 81 60 69 71 76 75 21 39 44 104 106 116 205 215 192 186 189 188 176 166 160 159 173 211 232 238 248 266 287 299 305 305 311 319 326 330 336 343 348 351 354 358 347